TimeCDT,TemperatureF,Dew PointF,Humidity,Sea Level PressureIn,VisibilityMPH,Wind Direction,Wind SpeedMPH,Gust SpeedMPH,PrecipitationIn,Events,Conditions,WindDirDegrees,DateUTC
12:53 AM,41.0,34.0,76,30.36,10.0,Calm,Calm,-,N/A,,Overcast,0,2012-10-07 05:53:00
1:53 AM,39.9,34.0,79,30.36,10.0,Calm,Calm,-,N/A,,Clear,0,2012-10-07 06:53:00
2:53 AM,37.0,32.0,82,30.36,10.0,Calm,Calm,-,N/A,,Clear,0,2012-10-07 07:53:00
3:53 AM,33.1,30.9,92,30.35,10.0,Calm,Calm,-,N/A,,Clear,0,2012-10-07 08:53:00
4:53 AM,30.9,30.0,96,30.34,10.0,Calm,Calm,-,N/A,,Clear,0,2012-10-07 09:53:00
5:53 AM,30.0,28.9,96,30.35,10.0,Calm,Calm,-,N/A,,Clear,0,2012-10-07 10:53:00
6:53 AM,28.9,28.0,96,30.35,10.0,Calm,Calm,-,N/A,,Clear,0,2012-10-07 11:53:00
7:53 AM,32.0,30.9,96,30.35,10.0,Calm,Calm,-,N/A,,Clear,0,2012-10-07 12:53:00
8:53 AM,41.0,34.0,76,30.36,10.0,Variable,3.5,-,N/A,,Unknown,0,2012-10-07 13:53:00
9:53 AM,48.0,30.9,52,30.36,10.0,Variable,3.5,-,N/A,,Clear,0,2012-10-07 14:53:00
10:53 AM,51.1,28.0,41,30.36,10.0,North,4.6,-,N/A,,Clear,10,2012-10-07 15:53:00
11:53 AM,51.1,26.1,38,30.35,10.0,Calm,Calm,-,N/A,,Clear,0,2012-10-07 16:53:00
12:53 PM,52.0,25.0,35,30.32,10.0,Calm,Calm,-,N/A,,Clear,0,2012-10-07 17:53:00
1:53 PM,53.1,26.1,35,30.30,10.0,Calm,Calm,-,N/A,,Clear,0,2012-10-07 18:53:00
2:53 PM,54.0,26.1,34,30.26,10.0,West,5.8,-,N/A,,Clear,270,2012-10-07 19:53:00
3:53 PM,55.0,25.0,31,30.24,10.0,East,5.8,-,N/A,,Clear,100,2012-10-07 20:53:00
4:53 PM,53.1,25.0,34,30.23,10.0,SE,6.9,-,N/A,,Clear,140,2012-10-07 21:53:00
5:53 PM,53.1,25.0,34,30.22,10.0,South,8.1,-,N/A,,Clear,170,2012-10-07 22:53:00
6:53 PM,48.9,27.0,43,30.22,10.0,South,4.6,-,N/A,,Clear,180,2012-10-07 23:53:00
7:53 PM,41.0,27.0,57,30.23,10.0,SSW,5.8,-,N/A,,Clear,210,2012-10-08 00:53:00
8:53 PM,39.9,28.0,63,30.24,10.0,Calm,Calm,-,N/A,,Clear,0,2012-10-08 01:53:00
9:53 PM,41.0,28.9,62,30.25,10.0,SW,6.9,-,N/A,,Clear,230,2012-10-08 02:53:00
10:53 PM,42.1,32.0,67,30.24,10.0,SW,5.8,-,N/A,,Clear,230,2012-10-08 03:53:00
11:53 PM,37.9,32.0,79,30.24,10.0,Calm,Calm,-,N/A,,Clear,0,2012-10-08 04:53:00